Weather History for Montpelier, VT

Change the Weather History Date:

Saturday, March 8, 2014

  Actual Average Record
Temperature  
Mean Temperature 24 °F 26 °F  
Max Temperature 34 °F 36 °F 61 °F (2012)
Min Temperature 13 °F 16 °F -9 °F (1989)
Degree Days  
Heating Degree Days 41 39  
Month to date heating degree days 433 324  
Since 1 July heating degree days 6598 6232  
Cooling Degree Days 0 0  
Month to date cooling degree days 0 0  
Year to date cooling degree days 0 0  
Moisture  
Dew Point 15 °F    
Average Humidity 61    
Maximum Humidity 78    
Minimum Humidity 44    
Precipitation  
Precipitation 0.00 in 0.08 in 1.30 in (2008)
Month to date precipitation 0.01 0.59  
Year to date precipitation 4.32 5.08  
Sea Level Pressure  
Sea Level Pressure 29.90 in    
Wind  
Wind Speed 5 mph (NW)    
Max Wind Speed 16 mph    
Max Gust Speed 23 mph    
Visibility 9 miles    
Events      
T = Trace of Precipitation, MM = Missing Value Source: NWS Daily Summary

Daily Weather History Graph

Daily Weather History Graph

Search for Another Location

Airport:

Trip Planner

Search our weather history database for the weather conditions in past years. The results will help you decide how hot, cold, wet, or windy it might be!

Date:

Astronomy

Mar. 08, 2014 Rise Set
Actual Time 6:15 AM EST 5:47 PM EST
Civil Twilight 5:46 AM EST 6:16 PM EST
Nautical Twilight 5:12 AM EST 6:49 PM EST
Astronomical Twilight 4:39 AM EST 7:23 PM EST
Moon 10:40 AM EST (3/8) 12:56 AM EST (3/8)
Length of Visible Light 12h 30m
Length of Day
11h 32m
First Quarter, 51% of the Moon is Illuminated
Mar 8
First Quarter
Mar 16
Full
Mar 23
Last Quarter
Mar 30
New
Apr 7
First Quarter

Hourly Weather History & Observations

Time (EST) Temp. Windchill Dew Point Humidity Pressure Visibility Wind Dir Wind Speed Gust Speed Precip Events Conditions
12:51 AM 24.1 °F 18.2 °F 6.1 °F 46% 29.95 in 10.0 mi SSW 4.6 mph - N/A   Clear
1:51 AM 19.0 °F - 6.1 °F 57% 29.94 in 10.0 mi Calm Calm - N/A   Clear
2:51 AM 16.0 °F - 5.0 °F 62% 29.91 in 10.0 mi Calm Calm - N/A   Clear
3:51 AM 15.1 °F - 5.0 °F 64% 29.89 in 10.0 mi Calm Calm - N/A   Clear
4:51 AM 12.9 °F - 5.0 °F 71% 29.89 in 10.0 mi Calm Calm - N/A   Partly Cloudy
5:51 AM 18.0 °F - 8.1 °F 65% 29.88 in 10.0 mi Calm Calm - N/A   Overcast
6:51 AM 19.0 °F - 9.0 °F 65% 29.87 in 10.0 mi Calm Calm - N/A   Overcast
7:51 AM 19.9 °F - 10.0 °F 65% 29.88 in 10.0 mi Calm Calm - N/A   Overcast
8:51 AM 23.0 °F 18.4 °F 10.0 °F 58% 29.88 in 10.0 mi SSE 3.5 mph - N/A   Overcast
9:51 AM 27.0 °F 21.6 °F 10.9 °F 51% 29.87 in 10.0 mi NE 4.6 mph - N/A   Mostly Cloudy
10:51 AM 33.1 °F 26.1 °F 18.0 °F 54% 29.87 in 10.0 mi NNW 8.1 mph - N/A   Overcast
11:51 AM 34.0 °F 26.6 °F 21.9 °F 61% 29.87 in 10.0 mi NW 9.2 mph - N/A   Overcast
12:51 PM 32.0 °F 23.6 °F 25.0 °F 75% 29.87 in 8.0 mi NNW 10.4 mph - N/A   Overcast
1:29 PM 30.9 °F 21.7 °F 25.0 °F 79% 29.81 in 8.0 mi NW 11.5 mph - N/A   Overcast
1:51 PM 30.9 °F 21.7 °F 25.0 °F 79% 29.87 in 8.0 mi NW 11.5 mph - N/A   Overcast
2:07 PM 30.9 °F 22.2 °F 25.0 °F 79% 29.82 in 8.0 mi NNW 10.4 mph - N/A   Overcast
2:33 PM 30.9 °F 21.7 °F 25.0 °F 79% 29.82 in 9.0 mi NNW 11.5 mph - N/A   Overcast
2:51 PM 30.9 °F 22.8 °F 25.0 °F 79% 29.88 in 9.0 mi NW 9.2 mph - N/A   Overcast
3:51 PM 30.0 °F 21.7 °F 24.1 °F 79% 29.90 in 9.0 mi NNW 9.2 mph - N/A   Overcast
4:51 PM 28.9 °F 19.2 °F 21.0 °F 72% 29.92 in 8.0 mi NNW 11.5 mph 20.7 mph N/A   Overcast
5:49 PM 26.6 °F 19.1 °F 17.6 °F 69% 29.88 in 8.0 mi NNW 6.9 mph - N/A   Scattered Clouds
5:51 PM 27.0 °F 18.7 °F 18.0 °F 69% 29.94 in 8.0 mi NNW 8.1 mph - N/A   Partly Cloudy
6:51 PM 25.0 °F 18.1 °F 15.1 °F 66% 29.96 in 10.0 mi WNW 5.8 mph - N/A   Clear
7:51 PM 21.9 °F 14.5 °F 12.9 °F 68% 29.96 in 10.0 mi NW 5.8 mph - N/A   Clear
8:51 PM 23.0 °F 17.0 °F 12.0 °F 63% 29.97 in 10.0 mi WNW 4.6 mph - N/A   Clear
9:51 PM 21.9 °F 15.7 °F 10.9 °F 63% 29.96 in 10.0 mi NW 4.6 mph - N/A   Clear
10:51 PM 19.0 °F - 10.0 °F 68% 29.96 in 10.0 mi Calm Calm - N/A   Clear
11:51 PM 19.0 °F 11.1 °F 9.0 °F 65% 29.94 in 10.0 mi NW 5.8 mph - N/A   Clear